Location: Detroit
(42.3310°N, 83.0460°W)
Time: 12:40:01
(UTC-05:00)

SR - All Passes

Search period start: 07 February 2023 00:00
Search period end: 17 February 2023 00:00
Orbit: 581 x 869 km, 66.7° (Epoch: 06 February)

Date Brightness Start Highest point End Pass type
(mag) Time Alt. Az. Time Alt. Az. Time Alt. Az.
07 Feb - 00:06:09 10° WNW 00:09:20 21° WSW 00:12:32 10° SSW night (unlit)
07 Feb - 12:53:55 10° SSE 12:58:06 25° ESE 13:02:03 10° ENE daylight
07 Feb - 14:35:01 10° SW 14:39:54 43° NW 14:44:26 10° NNE daylight
07 Feb - 21:33:47 10° N 21:36:54 19° NE 21:39:59 10° E visible
07 Feb - 23:15:02 10° NW 23:19:07 48° WSW 23:23:13 10° S night (unlit)
08 Feb - 12:06:14 10° SE 12:07:58 12° ESE 12:09:39 10° E daylight
08 Feb - 13:44:10 10° SSW 13:49:22 87° WNW 13:54:10 10° NNE daylight
08 Feb - 15:29:14 10° WNW 15:31:57 15° NW 15:34:35 10° N daylight
08 Feb - 20:45:04 10° NNE 20:45:56 10° NE 20:46:49 10° NE visible
08 Feb - 22:24:28 10° NNW 22:28:44 73° ENE 22:32:58 10° SE night (unlit)
09 Feb - 00:09:41 10° W 00:10:01 10° WSW 00:10:21 10° WSW night (unlit)
09 Feb - 12:54:02 10° S 12:58:59 45° ESE 13:03:33 10° NE daylight
09 Feb - 14:36:55 10° WSW 14:41:06 26° NW 14:45:02 10° N daylight
09 Feb - 21:34:16 10° NNW 21:38:09 33° NE 21:42:00 10° ESE visible
09 Feb - 23:16:31 10° WNW 23:19:56 24° WSW 23:23:20 10° SSW night (unlit)
10 Feb - 12:04:46 10° SSE 12:08:42 22° ESE 12:12:25 10° ENE daylight
10 Feb - 13:45:29 10° SW 13:50:26 48° NW 13:55:01 10° NNE daylight
10 Feb - 20:44:29 10° N 20:47:22 17° NE 20:50:15 10° E visible
10 Feb - 22:25:31 10° NW 22:29:40 55° WSW 22:33:50 10° SSE night (unlit)
11 Feb - 12:54:45 10° SSW 12:59:55 84° ESE 13:04:41 10° NNE daylight
11 Feb - 14:39:26 10° W 14:42:25 16° NW 14:45:17 10° N daylight
11 Feb - 21:35:01 10° NNW 21:39:15 64° ENE 21:43:28 10° SE visible
11 Feb - 23:19:04 10° W 23:20:37 12° WSW 23:22:10 10° SW night (unlit)
12 Feb - 12:04:43 10° S 12:09:32 40° ESE 12:14:00 10° NE daylight
12 Feb - 13:47:17 10° WSW 13:51:35 28° NW 13:55:38 10° N daylight
12 Feb - 20:44:52 10° NNW 20:48:38 30° NE 20:52:23 10° ESE visible
12 Feb - 22:26:54 10° NW 22:30:29 27° WSW 22:34:06 10° S night (unlit)
13 Feb - 11:15:39 10° SSE 11:19:17 20° ESE 11:22:43 10° ENE daylight
13 Feb - 12:55:57 10° SW 13:00:56 54° WNW 13:05:34 10° NNE daylight
13 Feb - 19:55:10 10° N 19:57:49 16° NE 20:00:27 10° E visible
13 Feb - 21:36:00 10° NW 21:40:12 63° WSW 21:44:26 10° SSE visible
14 Feb - 12:05:19 10° SSW 12:10:27 75° ESE 12:15:11 10° NE daylight
14 Feb - 13:49:40 10° W 13:52:52 17° NW 13:55:57 10° N daylight
14 Feb - 20:45:33 10° NNW 20:49:45 56° ENE 20:53:56 10° SE visible
14 Feb - 22:29:04 10° WNW 22:31:11 14° WSW 22:33:19 10° SW night (unlit)
15 Feb - 11:15:25 10° S 11:20:05 35° ESE 11:24:25 10° NE daylight
15 Feb - 12:57:39 10° WSW 13:02:04 30° NW 13:06:12 10° NNE daylight
15 Feb - 19:55:27 10° N 19:59:06 27° NE 20:02:44 10° ESE visible
15 Feb - 21:37:18 10° NW 21:41:01 31° WSW 21:44:48 10° S visible
16 Feb - 10:26:34 10° SSE 10:29:50 17° ESE 10:32:58 10° ENE daylight
16 Feb - 12:06:26 10° SW 12:11:26 60° WNW 12:16:04 10° NNE daylight
16 Feb - 13:53:25 10° NW 13:54:18 10° NW 13:55:11 10° NNW daylight
16 Feb - 19:05:52 10° N 19:08:15 14° NE 19:10:36 10° ENE visible
16 Feb - 20:46:28 10° NW 20:50:43 73° WSW 20:54:58 10° SSE visible
